Surface/Precipitation History
09/21/2017 16:14  to  9/22/2017 16:14
Change End Date:
Date/Time
(MDT)
Sf
Temp Chem Water Layer Surface Precipitation
Sfc Pvt Sub Frz Factor Pct Dpth DpthThk IcePct Cond Salin FI Type Intens Accum Rate
09/22/2017 16:06 Wet 45.0F - 56F 32F 5 0% 0.00 in - 0% 0 mhos 3 - Yes - - -
09/22/2017 15:59 Wet 45.0F - 56F 32F 5 0% 0.00 in - 0% 0 mhos 4 - Yes - - -
09/22/2017 15:51 Wet 45.0F - 56F 32F 5 0% 0.00 in - 0% 0 mhos 4 - Yes - - -
09/22/2017 15:49 Wet 45.0F - 56F 32F 5 0% 0.00 in - 0% 0 mhos 4 - Yes - - -
09/22/2017 15:39 Wet 44.1F - 56F 32F 5 0% 0.00 in - 0% 0 mhos 2 - Yes - - -
09/22/2017 15:36 Wet 43.9F - 56F 32F 5 0% 0.00 in - 0% 0 mhos 3 - Yes - - -
09/22/2017 15:29 Wet 43.0F - 56F 32F 5 0% 0.00 in - 0% 0 mhos 4 - Yes - - -
09/22/2017 15:21 Wet 42.4F - 56F 32F 5 0% 0.00 in - 0% 0 mhos 3 - Yes - - -
09/22/2017 15:19 Wet 42.6F - 56F 32F 5 0% 0.00 in - 0% 0 mhos 3 - Yes - - -
09/22/2017 15:09 Wet 42.6F - 56F 32F 5 0% 0.00 in - 0% 0 mhos 5 - Yes - - -
09/22/2017 15:06 Wet 42.8F - 56F 32F 5 0% 0.00 in - 0% 0 mhos 4 - Yes - - -
09/22/2017 14:59 Wet 42.8F - 56F 32F 5 0% 0.00 in - 0% 0 mhos 4 - Yes - - -
09/22/2017 14:52 Wet 43.0F - 56F 32F 5 0% 0.00 in - 0% 0 mhos 4 - Yes - - -
09/22/2017 14:49 Wet 43.2F - 56F 32F 5 0% 0.00 in - 0% 0 mhos 4 - Yes - - -
09/22/2017 14:39 Wet 43.0F - 56F 32F 5 0% 0.00 in - 0% 0 mhos 3 - Yes - - -
Date/Time
(MDT)
Sf
Temp Chem Water Layer Surface Precipitation
Sfc Pvt Sub Frz Factor Pct Dpth DpthThk IcePct Cond Salin FI Type Intens Accum Rate
09/22/2017 14:36 Wet 43.2F - 56F 32F 5 0% 0.00 in - 0% 0 mhos 4 - Yes - - -
09/22/2017 14:29 Wet 43.2F - 56F 32F 5 0% 0.00 in - 0% 0 mhos 2 - Yes - - -
09/22/2017 14:21 Wet 43.2F - 56F 32F 5 0% 0.00 in - 0% 0 mhos 3 - Yes - - -
09/22/2017 14:19 Wet 43.2F - 56F 32F 5 0% 0.00 in - 0% 0 mhos 3 - Yes - - -
09/22/2017 14:09 Wet 42.8F - 56F 32F 5 0% 0.00 in - 0% 0 mhos 3 - Yes - - -
09/22/2017 14:06 Wet 42.6F - 56F 32F 5 0% 0.00 in - 0% 0 mhos 4 - Yes - - -
09/22/2017 13:59 Wet 42.1F - 56F 32F 5 0% 0.00 in - 0% 0 mhos 3 - Yes - - -
09/22/2017 13:51 Wet 42.1F - 56F 32F 5 0% 0.00 in - 0% 0 mhos 4 - Yes - - -
09/22/2017 13:48 Wet 42.1F - 56F 32F 5 0% 0.00 in - 0% 0 mhos 4 - Yes - - -
09/22/2017 13:38 Wet 41.5F - 56F 32F 5 0% 0.00 in - 0% 0 mhos 3 - Yes - - -
09/22/2017 13:36 Wet 41.5F - 56F 32F 5 0% 0.00 in - 0% 0 mhos 3 - Yes - - -
09/22/2017 13:28 Wet 41.7F - 56F 32F 5 0% 0.00 in - 0% 0 mhos 4 - Yes - - -
09/22/2017 13:21 Wet 41.7F - 56F 32F 5 0% 0.00 in - 0% 0 mhos 3 - Yes - - -
09/22/2017 13:18 Wet 41.5F - 56F 32F 5 0% 0.00 in - 0% 0 mhos 3 - Yes - - -
09/22/2017 13:08 Wet 41.5F - 56F 32F 5 0% 0.00 in - 0% 0 mhos 3 - Yes - - -
Date/Time
(MDT)
Sf
Temp Chem Water Layer Surface Precipitation
Sfc Pvt Sub Frz Factor Pct Dpth DpthThk IcePct Cond Salin FI Type Intens Accum Rate
09/22/2017 13:06 Wet 41.7F - 56F 32F 5 0% 0.00 in - 0% 0 mhos 3 - Yes - - -
09/22/2017 12:58 Wet 41.9F - 56F 32F 5 0% 0.00 in - 0% 0 mhos 2 - Yes - - -
09/22/2017 12:51 Wet 41.7F - 56F 32F 5 0% 0.00 in - 0% 0 mhos 3 - Yes - - -
09/22/2017 12:48 Wet 41.9F - 56F 32F 5 0% 0.00 in - 0% 0 mhos 3 - Yes - - -
09/22/2017 12:38 Wet 41.9F - 56F 32F 5 0% 0.00 in - 0% 0 mhos 3 - Yes - - -
09/22/2017 12:36 Wet 41.9F - 56F 32F 5 0% 0.00 in - 0% 0 mhos 4 - Yes - - -
09/22/2017 12:28 Wet 42.3F - 56F 32F 5 0% 0.00 in - 0% 0 mhos 4 - Yes - - -
09/22/2017 12:21 Wet 42.3F - 56F 32F 5 0% 0.00 in - 0% 0 mhos 4 - Yes - - -
09/22/2017 12:18 Wet 42.1F - 56F 32F 5 0% 0.00 in - 0% 0 mhos 3 - Yes - - -
09/22/2017 12:08 Wet 41.9F - 56F 32F 5 0% 0.00 in - 0% 0 mhos 4 - Yes - - -
09/22/2017 12:06 Wet 41.9F - 56F 32F 5 0% 0.00 in - 0% 0 mhos 4 - Yes - - -
09/22/2017 11:58 Wet 41.5F - 56F 32F 5 0% 0.00 in - 0% 0 mhos 4 - Yes - - -
09/22/2017 11:51 Wet 41.5F - 56F 32F 5 0% 0.00 in - 0% 0 mhos 3 - Yes - - -
09/22/2017 11:48 Wet 41.4F - 56F 32F 5 0% 0.00 in - 0% 0 mhos 3 - Yes - - -
09/22/2017 11:38 Wet 41.5F - 57F 32F 5 0% 0.00 in - 0% 0 mhos 2 - Yes - - -
Date/Time
(MDT)
Sf
Temp Chem Water Layer Surface Precipitation
Sfc Pvt Sub Frz Factor Pct Dpth DpthThk IcePct Cond Salin FI Type Intens Accum Rate
09/22/2017 11:36 Wet 41.4F - 57F 32F 5 0% 0.00 in - 0% 0 mhos 4 - Yes - - -
09/22/2017 11:28 Wet 41.2F - 57F 32F 5 0% 0.00 in - 0% 0 mhos 2 - Yes - - -
09/22/2017 11:22 Wet 41.4F - 57F 32F 5 0% 0.00 in - 0% 0 mhos 4 - Yes - - -
09/22/2017 11:18 Wet 41.2F - 57F 32F 5 0% 0.00 in - 0% 0 mhos 3 - Yes - - -
09/22/2017 11:08 Wet 41.4F - 57F 32F 5 0% 0.00 in - 0% 0 mhos 3 - Yes - - -
09/22/2017 11:06 Wet 41.2F - 57F 32F 5 0% 0.00 in - 0% 0 mhos 3 - Yes - - -
09/22/2017 10:58 Wet 40.8F - 57F 32F 5 0% 0.00 in - 0% 0 mhos 3 - Yes - - -
09/22/2017 10:51 Wet 40.6F - 57F 32F 5 0% 0.00 in - 0% 0 mhos 3 - Yes - - -
09/22/2017 10:48 Wet 40.5F - 57F 32F 5 0% 0.00 in - 0% 0 mhos 3 - Yes - - -
09/22/2017 10:38 Wet 40.1F - 57F 32F 5 0% 0.00 in - 0% 0 mhos 3 - Yes - - -
09/22/2017 10:36 Wet 39.9F - 57F 32F 5 0% 0.00 in - 0% 0 mhos 4 - Yes - - -
09/22/2017 10:27 Wet 39.4F - 57F 32F 5 0% 0.00 in - 0% 0 mhos 3 - Yes - - -
09/22/2017 10:21 Wet 38.8F - 57F 32F 5 0% 0.00 in - 0% 0 mhos 4 - Yes - - -
09/22/2017 10:17 Wet 38.7F - 57F 32F 5 0% 0.00 in - 0% 0 mhos 3 - Yes - - -
09/22/2017 10:07 Wet 38.5F - 57F 32F 5 0% 0.00 in - 0% 0 mhos 4 - Yes - - -
Date/Time
(MDT)
Sf
Temp Chem Water Layer Surface Precipitation
Sfc Pvt Sub Frz Factor Pct Dpth DpthThk IcePct Cond Salin FI Type Intens Accum Rate
09/22/2017 10:06 Wet 38.5F - 57F 32F 5 0% 0.00 in - 0% 0 mhos 4 - Yes - - -
09/22/2017 09:57 Wet 38.5F - 57F 32F 5 0% 0.00 in - 0% 0 mhos 4 - Yes - - -
09/22/2017 09:51 Wet 38.7F - 57F 32F 5 0% 0.00 in - 0% 0 mhos 5 - Yes - - -
09/22/2017 09:47 Wet 38.7F - 57F 32F 5 0% 0.00 in - 0% 0 mhos 5 - Yes - - -
09/22/2017 09:37 Wet 39.0F - 57F 32F 5 0% 0.00 in - 0% 0 mhos 5 - Yes - - -
09/22/2017 09:36 Wet 39.0F - 57F 32F 5 0% 0.00 in - 0% 0 mhos 6 - Yes - - -
09/22/2017 09:27 Wet 39.2F - 57F 32F 5 0% 0.00 in - 0% 0 mhos 5 - Yes - - -
09/22/2017 09:21 Wet 39.0F - 57F 32F 5 0% 0.00 in - 0% 0 mhos 4 - None None - -
09/22/2017 09:17 Wet 39.4F - 57F 32F 5 0% 0.00 in - 0% 0 mhos 5 - Yes - - -
09/22/2017 09:07 Wet 39.2F - 57F 32F 5 0% 0.00 in - 0% 0 mhos 7 - None None - -
09/22/2017 09:06 Wet 39.4F - 57F 32F 5 0% 0.00 in - 0% 0 mhos 6 - None None - -
09/22/2017 08:57 Wet 39.4F - 57F 32F 5 0% 0.00 in - 0% 0 mhos 10 - Yes - - -
09/22/2017 08:51 Wet 39.6F - 57F 32F 5 0% 0.00 in - 0% 0 mhos 7 - None None - -
09/22/2017 08:47 Wet 39.6F - 57F 32F 5 0% 0.00 in - 0% 0 mhos 6 - None None - -
09/22/2017 08:37 Wet 39.2F - 57F 32F 5 0% 0.00 in - 0% 0 mhos 5 - Yes - - -
Date/Time
(MDT)
Sf
Temp Chem Water Layer Surface Precipitation
Sfc Pvt Sub Frz Factor Pct Dpth DpthThk IcePct Cond Salin FI Type Intens Accum Rate
09/22/2017 08:36 Wet 39.2F - 57F 32F 5 0% 0.00 in - 0% 0 mhos 5 - Yes - - -
09/22/2017 08:27 Wet 39.2F - 57F 32F 5 0% 0.00 in - 0% 0 mhos 5 - Yes - - -
09/22/2017 08:21 Wet 39.2F - 57F 32F 5 0% 0.00 in - 0% 0 mhos 6 - Yes - - -
09/22/2017 08:17 Wet 39.4F - 58F 32F 5 0% 0.00 in - 0% 0 mhos 6 - Yes - - -
09/22/2017 08:07 Wet 39.4F - 58F 32F 5 0% 0.00 in - 0% 0 mhos 5 - None None - -
09/22/2017 08:06 Wet 39.4F - 58F 32F 5 0% 0.00 in - 0% 0 mhos 5 - None None - -
09/22/2017 07:57 Wet 39.4F - 58F 32F 5 0% 0.00 in - 0% 0 mhos 5 - Yes - - -
09/22/2017 07:51 Wet 39.2F - 58F 32F 5 0% 0.00 in - 0% 0 mhos 5 - Yes - - -
09/22/2017 07:47 Wet 39.2F - 58F 32F 5 0% 0.00 in - 0% 0 mhos 4 - Yes - - -
09/22/2017 07:37 Wet 39.0F - 58F 32F 5 0% 0.00 in - 0% 0 mhos 5 - None None - -
09/22/2017 07:36 Wet 39.0F - 58F 32F 5 0% 0.00 in - 0% 0 mhos 5 - None None - -
09/22/2017 07:27 Wet 39.0F - 58F 32F 5 0% 0.00 in - 0% 0 mhos 4 - None None - -
09/22/2017 07:21 Wet 39.0F - 58F 32F 5 0% 0.00 in - 0% 0 mhos 4 - Yes - - -
09/22/2017 07:17 Wet 39.0F - 58F 32F 5 0% 0.00 in - 0% 0 mhos 5 - None None - -
09/22/2017 07:07 Wet 38.8F - 58F 32F 5 0% 0.00 in - 0% 0 mhos 4 - None None - -
Date/Time
(MDT)
Sf
Temp Chem Water Layer Surface Precipitation
Sfc Pvt Sub Frz Factor Pct Dpth DpthThk IcePct Cond Salin FI Type Intens Accum Rate
09/22/2017 07:06 Wet 38.8F - 58F 32F 5 0% 0.00 in - 0% 0 mhos 4 - None None - -
09/22/2017 06:56 Wet 38.7F - 58F 32F 5 0% 0.00 in - 0% 0 mhos 4 - None None - -
09/22/2017 06:51 Wet 38.7F - 58F 32F 5 0% 0.00 in - 0% 0 mhos 4 - None None - -
09/22/2017 06:46 Wet 38.8F - 58F 32F 5 0% 0.00 in - 0% 0 mhos 4 - None None - -
09/22/2017 06:36 Wet 38.8F - 58F 32F 5 0% 0.00 in - 0% 0 mhos 4 - None None - -
09/22/2017 06:36 Wet 38.8F - 58F 32F 5 0% 0.00 in - 0% 0 mhos 4 - None None - -
09/22/2017 06:26 Wet 38.7F - 58F 32F 5 0% 0.00 in - 0% 0 mhos 4 - None None - -
09/22/2017 06:21 Wet 38.8F - 58F 32F 5 0% 0.00 in - 0% 0 mhos 4 - None None - -
09/22/2017 06:16 Wet 38.8F - 58F 32F 5 0% 0.00 in - 0% 0 mhos 4 - None None - -
09/22/2017 06:06 Wet 38.7F - 58F 32F 5 0% 0.00 in - 0% 0 mhos 3 - None None - -
09/22/2017 06:06 Wet 38.7F - 58F 32F 5 0% 0.00 in - 0% 0 mhos 3 - None None - -
09/22/2017 05:56 Wet 38.8F - 58F 32F 5 0% 0.00 in - 0% 0 mhos 3 - None None - -
09/22/2017 05:51 Wet 39.0F - 58F 32F 5 0% 0.00 in - 0% 0 mhos 3 - Yes - - -
09/22/2017 05:46 Wet 38.8F - 58F 32F 5 0% 0.00 in - 0% 0 mhos 4 - None None - -
09/22/2017 05:36 Wet 38.7F - 58F 32F 5 0% 0.00 in - 0% 0 mhos 3 - Yes - - -
Date/Time
(MDT)
Sf
Temp Chem Water Layer Surface Precipitation
Sfc Pvt Sub Frz Factor Pct Dpth DpthThk IcePct Cond Salin FI Type Intens Accum Rate
09/22/2017 05:36 Wet 38.7F - 58F 32F 5 0% 0.00 in - 0% 0 mhos 3 - Yes - - -
09/22/2017 05:26 Wet 38.7F - 58F 32F 5 0% 0.00 in - 0% 0 mhos 3 - None None - -
09/22/2017 05:16 Wet 38.3F - 58F 32F 5 0% 0.00 in - 0% 0 mhos 3 - Yes - - -
09/22/2017 05:06 Wet 38.1F - 58F 32F 5 0% 0.00 in - 0% 0 mhos 3 - None None - -
09/22/2017 04:56 Wet 37.6F - 58F 32F 5 0% 0.00 in - 0% 0 mhos 3 - None None - -
09/22/2017 04:51 Wet 37.8F - 58F 32F 5 0% 0.00 in - 0% 0 mhos 3 - Yes - - -
09/22/2017 04:46 Wet 37.6F - 58F 32F 5 0% 0.00 in - 0% 0 mhos 3 - None None - -
09/22/2017 04:36 Wet 37.4F - 58F 32F 5 0% 0.00 in - 0% 0 mhos 2 - None None - -
09/22/2017 04:36 Wet 37.4F - 58F 32F 5 0% 0.00 in - 0% 0 mhos 2 - None None - -
09/22/2017 04:26 Wet 37.6F - 58F 32F 5 0% 0.00 in - 0% 0 mhos 2 - Yes - - -
09/22/2017 04:21 Wet 38.3F - 58F 32F 5 0% 0.00 in - 0% 0 mhos 2 - Yes - - -
09/22/2017 04:16 Wet 38.7F - 58F 32F 5 0% 0.00 in - 0% 0 mhos 3 - Yes - - -
09/22/2017 04:06 Wet 38.8F - 58F 32F 5 0% 0.00 in - 0% 0 mhos 3 - Yes - - -
09/22/2017 04:06 Wet 38.8F - 58F 32F 5 0% 0.00 in - 0% 0 mhos 3 - Yes - - -
09/22/2017 03:56 Wet 39.0F - 58F 32F 5 0% 0.00 in - 0% 0 mhos 3 - Yes - - -
Date/Time
(MDT)
Sf
Temp Chem Water Layer Surface Precipitation
Sfc Pvt Sub Frz Factor Pct Dpth DpthThk IcePct Cond Salin FI Type Intens Accum Rate
09/22/2017 03:52 Wet 39.4F - 59F 32F 5 0% 0.00 in - 0% 0 mhos 3 - Yes - - -
09/22/2017 03:46 Wet 39.9F - 59F 32F 5 0% 0.00 in - 0% 0 mhos 3 - Yes - - -
09/22/2017 03:38 Wet 39.9F - 59F 32F 5 0% 0.00 in - 0% 0 mhos 3 - Yes - - -
09/22/2017 03:35 Wet 39.9F - 59F 32F 5 0% 0.00 in - 0% 0 mhos 3 - Yes - - -
09/22/2017 03:25 Wet 39.9F - 59F 32F 5 0% 0.00 in - 0% 0 mhos 4 - Yes - - -
09/22/2017 03:25 Wet 39.9F - 59F 32F 5 0% 0.00 in - 0% 0 mhos 5 - Yes - - -
09/22/2017 03:15 Wet 40.8F - 59F 32F 5 0% 0.00 in - 0% 0 mhos 7 - Yes - - -
09/22/2017 03:05 Wet 41.4F - 59F 32F 5 0% 0.00 in - 0% 0 mhos 12 - Yes - - -
09/22/2017 02:55 Wet 41.7F - 59F 32F 5 0% 0.00 in - 0% 0 mhos 15 - Yes - - -
09/22/2017 02:45 Wet 41.5F - 59F 32F 5 0% 0.00 in - 0% 0 mhos 15 - Yes - - -
09/22/2017 02:36 Wet 41.4F - 59F 32F 5 0% 0.00 in - 0% 0 mhos 14 - Yes - - -
09/22/2017 02:35 Wet 41.4F - 59F 32F 5 0% 0.00 in - 0% 0 mhos 13 - Yes - - -
09/22/2017 02:25 Wet 41.5F - 59F 32F 5 0% 0.00 in - 0% 0 mhos 12 - Yes - - -
09/22/2017 02:21 Wet 41.4F - 59F 32F 5 0% 0.00 in - 0% 0 mhos 12 - Yes - - -
09/22/2017 02:15 Wet 41.9F - 59F 32F 5 0% 0.00 in - 0% 0 mhos 11 - Yes - - -
Date/Time
(MDT)
Sf
Temp Chem Water Layer Surface Precipitation
Sfc Pvt Sub Frz Factor Pct Dpth DpthThk IcePct Cond Salin FI Type Intens Accum Rate
09/22/2017 02:06 Wet 42.3F - 59F 32F 5 0% 0.00 in - 0% 0 mhos 7 - Yes - - -
09/22/2017 02:05 Wet 42.1F - 59F 32F 5 0% 0.00 in - 0% 0 mhos 7 - Yes - - -
09/22/2017 01:55 Wet 42.6F - 59F 32F 5 0% 0.00 in - 0% 0 mhos 2 - Yes - - -
09/22/2017 01:52 Wet 42.6F - 59F 32F 5 0% 0.00 in - 0% 0 mhos 0 - Yes - - -
09/22/2017 01:45 Wet 42.8F - 59F 32F 5 0% 0.00 in - 0% 0 mhos 0 - Yes - - -
09/22/2017 01:36 Wet 43.0F - 59F 32F 5 0% 0.00 in - 0% 0 mhos 0 - Yes - - -
09/22/2017 01:35 Wet 43.0F - 59F 32F 5 0% 0.00 in - 0% 0 mhos 0 - Yes - - -
09/22/2017 01:25 Dry 43.7F - 59F - - - - - - 0 mhos 0 - Yes - - -
09/22/2017 01:21 Dry 44.1F - 59F - - - - - - 0 mhos 0 - Yes - - -
09/22/2017 01:15 Dry 44.2F - 59F - - - - - - 0 mhos 0 - Yes - - -
09/22/2017 01:06 Dry 45.0F - 59F - - - - - - 0 mhos 0 - Yes - - -
09/22/2017 01:05 Dry 45.3F - 59F - - - - - - 0 mhos 0 - Yes - - -
09/22/2017 00:55 Dry 46.2F - 59F - - - - - - 0 mhos 0 - None None - -
09/22/2017 00:51 Dry 46.2F - 59F - - - - - - 0 mhos 0 - None None - -
09/22/2017 00:45 Dry 46.6F - 59F - - - - - - 0 mhos 0 - None None - -
Date/Time
(MDT)
Sf
Temp Chem Water Layer Surface Precipitation
Sfc Pvt Sub Frz Factor Pct Dpth DpthThk IcePct Cond Salin FI Type Intens Accum Rate
09/22/2017 00:36 Dry 46.6F - 59F - - - - - - 0 mhos 0 - None None - -
09/22/2017 00:35 Dry 46.6F - 59F - - - - - - 0 mhos 0 - None None - -
09/22/2017 00:25 Dry 46.9F - 59F - - - - - - 0 mhos 0 - None None - -
09/22/2017 00:21 Dry 46.9F - 59F - - - - - - 0 mhos 0 - None None - -
09/22/2017 00:14 Dry 47.1F - 59F - - - - - - 0 mhos 0 - None None - -
09/22/2017 00:06 Dry 47.1F - 59F - - - - - - 0 mhos 0 - None None - -
09/22/2017 00:04 Dry 47.1F - 59F - - - - - - 0 mhos 0 - None None - -
09/21/2017 23:54 Dry 47.3F - 59F - - - - - - 0 mhos 0 - None None - -
09/21/2017 23:51 Dry 47.3F - 59F - - - - - - 0 mhos 0 - None None - -
09/21/2017 23:44 Dry 47.3F - 59F - - - - - - 0 mhos 0 - None None - -
09/21/2017 23:36 Dry 47.5F - 59F - - - - - - 0 mhos 0 - None None - -
09/21/2017 23:34 Dry 47.5F - 59F - - - - - - 0 mhos 0 - None None - -
09/21/2017 23:24 Dry 47.7F - 59F - - - - - - 0 mhos 0 - None None - -
09/21/2017 23:21 Dry 47.7F - 59F - - - - - - 0 mhos 0 - None None - -
09/21/2017 23:14 Dry 47.7F - 59F - - - - - - 0 mhos 0 - None None - -
Date/Time
(MDT)
Sf
Temp Chem Water Layer Surface Precipitation
Sfc Pvt Sub Frz Factor Pct Dpth DpthThk IcePct Cond Salin FI Type Intens Accum Rate
09/21/2017 23:06 Dry 47.7F - 59F - - - - - - 0 mhos 0 - None None - -
09/21/2017 23:04 Dry 47.7F - 59F - - - - - - 0 mhos 0 - None None - -
09/21/2017 22:54 Dry 48.0F - 59F - - - - - - 0 mhos 0 - None None - -
09/21/2017 22:51 Dry 48.0F - 59F - - - - - - 0 mhos 0 - None None - -
09/21/2017 22:44 Dry 48.2F - 59F - - - - - - 0 mhos 0 - None None - -
09/21/2017 22:37 Dry 48.4F - 59F - - - - - - 0 mhos 0 - None None - -
09/21/2017 22:34 Dry 48.4F - 59F - - - - - - 0 mhos 0 - None None - -
09/21/2017 22:24 Dry 48.9F - 59F - - - - - - 0 mhos 0 - None None - -
09/21/2017 21:51 Dry 50.2F - 59F - - - - - - 0 mhos 0 - None None - -
09/21/2017 21:44 Dry 50.2F - 59F - - - - - - 0 mhos 0 - None None - -
09/21/2017 21:36 Dry 50.5F - 59F - - - - - - 0 mhos 0 - None None - -
09/21/2017 21:34 Dry 50.5F - 59F - - - - - - 0 mhos 0 - None None - -
09/21/2017 21:24 Dry 50.5F - 59F - - - - - - 0 mhos 0 - None None - -
09/21/2017 21:21 Dry 50.7F - 59F - - - - - - 0 mhos 0 - None None - -
09/21/2017 21:13 Dry 50.7F - 59F - - - - - - 0 mhos 0 - None None - -
Date/Time
(MDT)
Sf
Temp Chem Water Layer Surface Precipitation
Sfc Pvt Sub Frz Factor Pct Dpth DpthThk IcePct Cond Salin FI Type Intens Accum Rate
09/21/2017 21:06 Dry 50.9F - 59F - - - - - - 0 mhos 0 - None None - -
09/21/2017 21:03 Dry 50.9F - 59F - - - - - - 0 mhos 0 - None None - -
09/21/2017 20:53 Dry 51.1F - 58F - - - - - - 0 mhos 0 - None None - -
09/21/2017 20:51 Dry 51.1F - 58F - - - - - - 0 mhos 0 - None None - -
09/21/2017 20:43 Dry 51.3F - 58F - - - - - - 0 mhos 0 - None None - -
09/21/2017 20:36 Dry 51.4F - 58F - - - - - - 0 mhos 0 - None None - -
09/21/2017 20:33 Dry 51.4F - 58F - - - - - - 0 mhos 0 - None None - -
09/21/2017 20:23 Dry 51.4F - 58F - - - - - - 0 mhos 0 - None None - -
09/21/2017 20:21 Dry 51.4F - 58F - - - - - - 0 mhos 0 - None None - -
09/21/2017 20:13 Dry 51.6F - 58F - - - - - - 0 mhos 0 - None None - -
09/21/2017 20:06 Dry 51.8F - 58F - - - - - - 0 mhos 0 - None None - -
09/21/2017 20:03 Dry 52.0F - 58F - - - - - - 0 mhos 0 - None None - -
09/21/2017 19:53 Dry 52.5F - 58F - - - - - - 0 mhos 0 - None None - -
09/21/2017 19:51 Dry 52.7F - 58F - - - - - - 0 mhos 0 - None None - -
09/21/2017 19:43 Dry 52.7F - 58F - - - - - - 0 mhos 0 - None None - -
Date/Time
(MDT)
Sf
Temp Chem Water Layer Surface Precipitation
Sfc Pvt Sub Frz Factor Pct Dpth DpthThk IcePct Cond Salin FI Type Intens Accum Rate
09/21/2017 19:36 Dry 53.2F - 58F - - - - - - 0 mhos 0 - None None - -
09/21/2017 19:33 Dry 53.2F - 58F - - - - - - 0 mhos 0 - None None - -
09/21/2017 19:23 Dry 53.8F - 58F - - - - - - 0 mhos 0 - None None - -
09/21/2017 19:21 Dry 53.8F - 58F - - - - - - 0 mhos 0 - None None - -
09/21/2017 19:13 Dry 54.3F - 58F - - - - - - 0 mhos 0 - None None - -
09/21/2017 19:06 Dry 54.9F - 58F - - - - - - 0 mhos 0 - None None - -
09/21/2017 19:03 Dry 55.0F - 58F - - - - - - 0 mhos 0 - None None - -
09/21/2017 18:53 Dry 55.9F - 58F - - - - - - 0 mhos 0 - None None - -
09/21/2017 18:51 Dry 56.1F - 58F - - - - - - 0 mhos 0 - None None - -
09/21/2017 18:43 Dry 56.7F - 58F - - - - - - 0 mhos 0 - None None - -
09/21/2017 18:36 Dry 57.4F - 58F - - - - - - 0 mhos 0 - None None - -
09/21/2017 18:33 Dry 57.6F - 58F - - - - - - 0 mhos 0 - None None - -
09/21/2017 18:22 Dry 58.6F - 58F - - - - - - 0 mhos 0 - None None - -
09/21/2017 18:21 Dry 58.6F - 58F - - - - - - 0 mhos 0 - None None - -
09/21/2017 18:12 Dry 59.4F - 58F - - - - - - 0 mhos 0 - None None - -
Date/Time
(MDT)
Sf
Temp Chem Water Layer Surface Precipitation
Sfc Pvt Sub Frz Factor Pct Dpth DpthThk IcePct Cond Salin FI Type Intens Accum Rate
09/21/2017 18:06 Dry 59.7F - 58F - - - - - - 0 mhos 0 - None None - -
09/21/2017 18:02 Dry 59.9F - 58F - - - - - - 0 mhos 0 - None None - -
09/21/2017 17:52 Dry 61.0F - 58F - - - - - - 0 mhos 0 - None None - -
09/21/2017 17:51 Dry 61.0F - 58F - - - - - - 0 mhos 0 - None None - -
09/21/2017 17:42 Dry 61.2F - 58F - - - - - - 0 mhos 0 - None None - -
09/21/2017 17:36 Dry 61.9F - 58F - - - - - - 0 mhos 0 - None None - -
09/21/2017 17:32 Dry 62.1F - 58F - - - - - - 0 mhos 0 - None None - -
09/21/2017 17:22 Dry 63.1F - 58F - - - - - - 0 mhos 0 - None None - -
09/21/2017 17:21 Dry 63.3F - 58F - - - - - - 0 mhos 0 - None None - -
09/21/2017 17:12 Dry 63.0F - 58F - - - - - - 0 mhos 0 - None None - -
09/21/2017 17:06 Dry 63.0F - 58F - - - - - - 0 mhos 0 - None None - -
09/21/2017 17:02 Dry 63.3F - 58F - - - - - - 0 mhos 0 - None None - -
09/21/2017 16:52 Dry 63.9F - 58F - - - - - - 0 mhos 0 - None None - -
09/21/2017 16:51 Dry 63.9F - 58F - - - - - - 0 mhos 0 - None None - -
09/21/2017 16:42 Dry 64.8F - 57F - - - - - - 0 mhos 0 - None None - -
Date/Time
(MDT)
Sf
Temp Chem Water Layer Surface Precipitation
Sfc Pvt Sub Frz Factor Pct Dpth DpthThk IcePct Cond Salin FI Type Intens Accum Rate
09/21/2017 16:36 Dry 65.5F - 57F - - - - - - 0 mhos 0 - None None - -
09/21/2017 16:32 Dry 65.7F - 57F - - - - - - 0 mhos 0 - None None - -
09/21/2017 16:22 Dry 67.5F - 57F - - - - - - 0 mhos 0 - None None - -
09/21/2017 16:21 Dry 67.5F - 57F - - - - - - 0 mhos 0 - None None - -
Change End Date:

Copyright © 1998-2015 Vaisala, Inc.
All Rights Reserved
Send comments about the data to:
SCAN Web ® is a registered trademark of Vaisala, Inc.
SCAN Web Version 6.0